Vertical_Velocity
7 -6 -11 8 8 -8 -0 6 3 1 -4 5 4 -4 -5 -3 1 -3 1 5 3 2 4 1 4 3 1 3 5 2 4 5 1 -3 -7 -11 -4 3 -5 -9 -5 -10 -3 -4
2 9 -2 1 4 2 -2 3 5 3 2 5 2 4 2 2 -0 2 2 3 3 3 1 2 2 0 -1 2 0 -0 -0 -2 -0 -3 -2 3 4 1 -2 -3 0 -2 -4 -0
31 -11 -3 -3 1 -1 0 12 -4 1 -5 -3 2 -3 1 4 2 -1 1 0 2 -0 2 -1 -3 -0 -0 1 -0 -3 -2 -0 0 -1 0 -0 -3 -5 -4 -3 -2 1 2 -0
4 -0 0 2 2 -2 5 -1 -2 -0 1 10 -5 6 -2 -4 -1 -1 -1 3 2 1 -2 -3 -3 1 4 1 -2 -3 -0 1 1 1 -2 -1 -1 -1 2 1 2 -2 -1 -2
-5 1 1 5 0 -2 -3 -1 -2 -3 1 -2 -4 2 19 -2 -3 -3 -0 -0 1 1 -3 -3 3 0 -2 -3 -3 -3 -1 -0 -0 1 1 1 2 2 0 2 5 5 1 1
-1 1 -1 -3 -3 -2 -2 -0 0 -2 -1 7 7 2 7 1 2 -2 0 1 1 -2 -2 1 -3 -2 -2 -2 0 1 0 -2 -1 1 1 1 1 2 1 1 1 -5 -2 -1
1 -0 0 0 -0 -1 -1 0 3 5 7 -2 -4 0 3 -5 -0 1 0 2 -1 -2 -0 -1 -1 -1 1 -1 -1 -0 -0 1 1 1 1 2 2 2 -1 3 -2 -1 -1 -4
0 9 1 -3 0 9 2 -2 0 -1 -0 1 -3 -1 10 -3 -1 -1 -1 1 2 1 0 -0 0 0 -0 -1 1 1 1 1 1 0 -1 -0 -0 -3 -2 -3 0 1 0 -0
-4 3 1 -1 2 -3 -3 3 -6 -1 -3 0 -1 -6 -4 -1 -2 -1 -0 -1 0 1 0 0 1 2 0 0 0 -0 0 -0 -2 2 -2 -1 -1 1 1 0 -1 -3 0 0
-3 1 -0 -2 -1 -3 -4 -3 -1 -3 1 0 2 -3 9 -4 -3 -3 -4 -1 -0 -1 -1 2 0 1 2 2 1 1 1 2 1 0 -1 1 3 -3 -1 -1 -1 -2 -3 -3
-1 -3 1 1 -6 4 -2 -2 -3 0 -2 1 0 6 -4 -1 -2 -2 -1 0 0 -0 -0 -1 -1 -2 -0 1 1 1 0 -2 0 0 6 -2 -3 1 -0 -1 -2 -2 -1 -1
-4 -3 2 4 -4 -2 -5 1 0 3 2 -1 -0 -0 -1 -2 -3 -2 -2 -3 -3 -1 1 1 1 2 2 0 1 -0 1 -0 2 9 -1 -0 1 -2 -2 -2 -1 -1 -1 -1
-4 -1 3 4 2 -1 -3 -1 -0 -1 1 -3 -0 2 1 -2 -4 -4 -2 -2 -1 -1 1 1 2 2 1 2 -1 2 6 3 3 -4 -2 -1 -2 -2 -1 -0 -2 -3 -4 -4
3 -0 -1 -5 5 1 -3 0 1 3 -0 -1 -11 2 -4 0 -2 -2 -1 -2 -2 3 0 1 2 -0 2 0 1 -2 1 2 0 -0 -2 -1 1 0 -3 -3 -3 -3 -4 -3
1 -1 1 -1 -1 0 -1 2 1 -3 2 -5 -2 -6 8 -1 -1 -1 -1 -1 -2 0 2 1 1 2 0 -1 -1 5 2 0 0 -1 1 -0 -2 -4 -3 -3 -3 -3 -2 -1
-0 -2 0 0 0 0 -1 -2 -0 -1 -3 -10 6 -20 5 4 3 -3 0 -1 -1 -1 -1 1 1 2 0 1 5 -1 -2 -2 -0 0 -2 -3 -2 -1 -2 -3 -2 -1 -2 -3
4 0 1 -0 1 2 -6 -6 -1 3 0 8 -3 11 -4 1 -0 0 -1 -1 0 -0 0 1 2 1 1 -1 0 -2 -1 1 1 -1 -2 -2 -2 -2 -2 -2 -2 -1 -3 -2
-1 2 2 -0 0 -0 -3 1 0 0 2 -0 4 2 4 0 0 0 1 1 -1 -0 0 1 1 1 0 1 1 -0 1 1 -1 -3 -2 -2 -2 -2 -2 -1 -0 -1 -3 -3
2 1 -2 -0 -0 -5 -8 -6 2 5 -6 3 2 1 1 -0 0 -0 0 -1 -2 -1 -1 -0 0 1 1 1 2 1 1 -2 -2 -1 -0 -1 -1 0 0 -2 -1 -1 -2 -1
1 2 1 -0 -1 -1 -3 -2 2 0 -4 -2 -1 -0 -1 -1 -2 8 -1 -1 -0 -0 -0 0 2 2 1 2 1 1 1 -1 -0 -1 -1 -1 -2 -2 -1 -2 0 -0 -2 0
1 1 -3 2 -1 -5 -1 2 -0 -1 2 -2 -4 -4 -4 2 0 -1 -3 -1 0 0 0 2 4 6 3 2 -0 -3 -0 -1 0 -0 -1 -1 -1 -1 -1 -2 1 2 -2 -0
0 -0 -2 1 -1 -4 -1 0 -3 -2 -2 1 1 -0 -0 -6 -3 -1 0 -0 1 1 2 1 8 5 5 1 -4 -2 1 1 -0 -2 -4 -4 -3 -4 -4 -3 -2 -1 -1 -2
-4 -2 -1 -1 1 2 2 1 -1 -1 0 1 3 3 2 2 2 1 2 1 3 3 4 1 5 2 -0 -2 -2 -1 2 -0 -2 -2 -1 -3 -1 -1 -1 -1 -1 0 1 -1
-3 1 -2 4 -1 3 0 -2 -1 -1 -1 -1 2 2 2 1 2 1 0 1 2 1 0 12 5 2 -4 -5 -2 -0 -2 -2 -1 -1 -2 -1 -0 2 1 -2 -2 -3 1 -1
-1 1 2 -3 2 -1 -2 -0 1 0 -0 -1 -1 -1 1 1 1 1 -0 -0 4 10 9 1 -2 -5 -4 -2 -1 -2 -2 -2 -1 -3 -4 -1 -1 -1 -1 -0 2 -5 0 0
3 -1 2 -3 -1 2 -2 -0 1 1 -0 -0 -1 -1 -1 1 -1 -0 4 10 7 6 -1 -4 -6 -5 -3 -1 -1 -2 -2 -3 -3 -3 -2 -2 -2 -1 -1 1 -2 -3 5 -2
Height
3135 3138 3138 3138 3140 3140 3141 3142 3144 3147 3148 3150 3151 3151 3153 3155 3156 3158 3159 3160 3161 3162 3164 3165 3166 3167 3167 3167 3166 3166 3164 3163 3162 3159 3159 3160 3157 3160 3160 3160 3158 3156 3154 3152
3136 3136 3136 3137 3139 3140 3141 3143 3143 3144 3145 3149 3150 3150 3151 3151 3152 3153 3155 3157 3158 3160 3160 3162 3162 3161 3161 3161 3161 3161 3161 3159 3158 3157 3157 3157 3157 3156 3155 3154 3153 3151 3149 3145
3134 3136 3137 3138 3139 3140 3141 3142 3141 3143 3144 3146 3148 3148 3148 3148 3149 3150 3152 3154 3155 3156 3157 3157 3157 3158 3158 3158 3157 3157 3157 3157 3156 3156 3155 3154 3152 3152 3151 3149 3146 3143 3139 3135
3134 3135 3136 3137 3138 3139 3140 3139 3141 3142 3145 3144 3146 3141 3143 3144 3145 3147 3148 3150 3152 3153 3153 3154 3155 3155 3155 3155 3155 3156 3156 3155 3154 3152 3151 3149 3148 3146 3144 3141 3137 3133 3129 3125
3135 3135 3136 3137 3137 3138 3139 3139 3141 3142 3144 3143 3144 3144 3140 3141 3141 3143 3144 3146 3148 3149 3150 3151 3152 3152 3153 3153 3153 3153 3152 3150 3149 3148 3146 3145 3143 3141 3138 3135 3130 3126 3121 3118
3132 3133 3135 3135 3137 3137 3139 3139 3140 3141 3142 3140 3139 3142 3136 3138 3139 3138 3139 3142 3143 3145 3147 3148 3149 3150 3151 3151 3150 3149 3147 3146 3144 3143 3141 3139 3137 3135 3132 3128 3124 3118 3114 3110
3132 3133 3134 3135 3137 3137 3138 3139 3138 3140 3138 3135 3136 3139 3136 3134 3135 3135 3136 3138 3140 3142 3144 3146 3147 3148 3147 3147 3146 3145 3143 3142 3140 3138 3136 3133 3131 3129 3125 3121 3116 3112 3107 3100
3130 3133 3133 3133 3135 3136 3136 3138 3137 3136 3134 3133 3135 3133 3132 3131 3132 3132 3133 3135 3137 3139 3141 3143 3144 3144 3144 3143 3142 3140 3139 3138 3136 3133 3130 3127 3125 3122 3119 3114 3109 3103 3097 3090
3128 3130 3130 3131 3131 3134 3133 3136 3136 3137 3136 3136 3131 3131 3130 3129 3130 3131 3131 3133 3135 3137 3139 3140 3141 3140 3140 3139 3137 3136 3135 3133 3130 3127 3124 3121 3117 3114 3109 3105 3099 3093 3087 3081
3125 3128 3128 3129 3130 3131 3133 3134 3136 3135 3135 3130 3126 3129 3127 3127 3128 3129 3130 3131 3133 3134 3135 3136 3137 3136 3135 3134 3132 3131 3128 3126 3123 3119 3116 3112 3108 3105 3100 3095 3090 3084 3077 3071
3123 3126 3128 3128 3128 3130 3131 3131 3132 3133 3132 3129 3127 3124 3125 3125 3126 3127 3128 3129 3129 3130 3131 3131 3131 3130 3129 3128 3126 3124 3122 3119 3115 3111 3108 3105 3101 3097 3092 3087 3081 3075 3069 3063
3120 3122 3124 3126 3124 3126 3126 3128 3129 3129 3130 3129 3129 3126 3123 3124 3124 3125 3126 3126 3126 3126 3126 3126 3125 3124 3123 3122 3120 3118 3115 3113 3109 3105 3101 3097 3093 3089 3084 3079 3073 3067 3061 3054
3118 3119 3122 3123 3125 3122 3123 3123 3125 3125 3125 3125 3127 3123 3121 3121 3121 3122 3122 3121 3122 3122 3122 3122 3120 3119 3117 3116 3114 3111 3109 3106 3102 3098 3094 3090 3086 3082 3076 3070 3064 3058 3051 3045
3115 3116 3117 3117 3117 3118 3118 3118 3119 3122 3122 3121 3118 3119 3117 3117 3117 3117 3116 3116 3116 3116 3116 3115 3114 3112 3112 3109 3107 3104 3101 3099 3095 3091 3087 3083 3079 3073 3067 3061 3054 3048 3041 3035
3112 3113 3113 3113 3114 3115 3115 3115 3115 3115 3116 3116 3115 3114 3116 3113 3111 3111 3110 3110 3110 3110 3110 3109 3107 3106 3105 3102 3100 3098 3095 3091 3087 3084 3080 3075 3070 3064 3057 3051 3045 3038 3033 3028
3108 3109 3110 3110 3110 3111 3111 3111 3111 3111 3110 3109 3109 3107 3108 3106 3105 3104 3104 3104 3104 3103 3103 3102 3101 3100 3098 3097 3094 3092 3088 3083 3080 3076 3071 3065 3060 3054 3048 3042 3037 3031 3025 3019
3105 3106 3107 3107 3107 3107 3108 3104 3104 3104 3104 3104 3103 3104 3100 3100 3099 3099 3099 3098 3098 3097 3096 3096 3095 3094 3092 3090 3086 3082 3078 3075 3072 3067 3062 3057 3051 3046 3040 3034 3028 3022 3016 3011
3101 3103 3105 3104 3105 3106 3100 3099 3099 3098 3098 3098 3097 3096 3095 3094 3094 3094 3094 3093 3093 3091 3090 3089 3089 3087 3085 3081 3078 3074 3071 3068 3064 3059 3054 3049 3043 3037 3031 3026 3020 3014 3009 3003
3098 3100 3101 3102 3101 3099 3097 3096 3096 3094 3095 3093 3092 3091 3090 3090 3089 3090 3089 3088 3087 3085 3084 3083 3081 3079 3076 3073 3069 3066 3063 3060 3056 3051 3045 3040 3034 3029 3024 3018 3012 3006 3000 2994
3095 3096 3099 3099 3099 3097 3094 3092 3091 3091 3090 3088 3088 3087 3087 3087 3086 3087 3084 3082 3081 3079 3077 3075 3073 3071 3067 3064 3060 3058 3055 3052 3047 3042 3038 3032 3027 3021 3015 3009 3004 2998 2992 2987
3091 3093 3093 3094 3094 3091 3089 3088 3088 3090 3092 3087 3086 3085 3084 3084 3083 3081 3078 3076 3074 3072 3070 3069 3065 3062 3059 3055 3052 3050 3048 3044 3039 3034 3029 3024 3018 3012 3006 3001 2996 2990 2985 2981
3089 3089 3089 3089 3090 3088 3086 3086 3088 3087 3084 3083 3081 3080 3079 3077 3076 3074 3072 3069 3067 3065 3063 3061 3057 3053 3050 3047 3046 3044 3040 3036 3031 3026 3021 3015 3009 3003 2998 2993 2989 2984 2978 2973
3086 3085 3086 3087 3085 3083 3082 3082 3081 3080 3079 3078 3076 3075 3073 3071 3069 3067 3065 3064 3061 3058 3055 3052 3048 3044 3043 3041 3040 3037 3032 3028 3023 3018 3012 3006 3000 2995 2990 2985 2981 2977 2971 2966
3079 3080 3080 3081 3080 3079 3078 3076 3075 3073 3072 3070 3069 3068 3066 3064 3062 3060 3058 3056 3053 3050 3047 3042 3039 3038 3037 3035 3033 3028 3024 3020 3015 3009 3004 2998 2993 2988 2983 2978 2973 2969 2965 2960
3076 3075 3075 3075 3075 3073 3071 3070 3068 3067 3065 3064 3062 3061 3059 3057 3054 3052 3050 3047 3045 3041 3038 3035 3034 3033 3032 3029 3025 3021 3017 3012 3006 3001 2995 2991 2986 2981 2976 2972 2967 2962 2959 2955
3071 3070 3070 3069 3069 3067 3066 3064 3062 3060 3058 3056 3054 3052 3050 3049 3046 3044 3042 3040 3036 3033 3031 3030 3029 3028 3025 3022 3018 3014 3009 3003 2998 2993 2988 2983 2978 2973 2969 2964 2960 2956 2953 2949